This demonstration page uses our WeatherBlox Daily Observations layout. Learn more.

Left ArrowRight Arrow

Hourly Observations for May 6, 2021

Temp ( °F °C ) Dew Point ( °F °C ) Humidity (%) Winds ( mph kmh ) Pressure ( in mb ) Visibility ( mi km ) Precip ( " mm )
12:53 am 00:53 Clear 71 21.7 45 7.2 39 39 SSE 16 26 29.95 1014 10 16 0.00 0.00
1:53 am 01:53 Clear 69 20.6 46 7.8 44 44 SSE 15 24 29.94 1014 10 16 0.00 0.00
2:53 am 02:53 Clear 66 18.9 48 8.9 52 52 SSE 10 17 29.93 1014 10 16 0.00 0.00
3:53 am 03:53 Clear 64 17.8 48 8.9 56 56 SE 9 15 29.93 1014 10 16 0.00 0.00
4:53 am 04:53 Clear 62 16.7 49 9.4 62 62 SE 9 15 29.94 1014 10 16 0.00 0.00
5:53 am 05:53 Clear 62 16.7 49 9.4 62 62 SE 12 19 29.95 1014 10 16 0.00 0.00
6:53 am 06:53 Clear 61 16.1 50 10 67 67 NNE 20 31 30.01 1016 10 16 0.00 0.00
7:53 am 07:53 Sunny 66 18.9 50 10 56 56 E 14 22 30.05 1018 10 16 0.00 0.00
8:53 am 08:53 Sunny 67 19.4 49 9.4 53 53 E 15 24 30.06 1018 10 16 0.00 0.00
9:53 am 09:53 Sunny 70 21.1 49 9.4 47 47 E 14 22 30.10 1019 10 16 0.00 0.00
10:53 am 10:53 Sunny 73 22.8 49 9.4 43 43 undefined N/A 30.13 1020 10 16 0.00 0.00
11:53 am 11:53 Sunny 74 23.3 49 9.4 41 41 Calm 30.12 1020 10 16 0.00 0.00
12:53 pm 12:53 Sunny 77 25 49 9.4 37 37 SE 8 13 30.11 1020 10 16 0.00 0.00
1:53 pm 13:53 Sunny 82 27.8 50 10 33 33 undefined N/A 30.07 1018 10 16 0.00 0.00
2:53 pm 14:53 Sunny 84 28.9 50 10 31 31 SE 14 22 30.05 1018 10 16 0.00 0.00
3:53 pm 15:53 Sunny 86 30 51 10.6 30 30 E 10 17 30.02 1017 10 16 0.00 0.00
4:53 pm 16:53 Sunny 88 31.1 49 9.4 26 26 E 7 11 29.98 1015 10 16 0.00 0.00
5:53 pm 17:53 Sunny 89 31.7 47 8.3 23 23 SSE 14 22 29.95 1014 10 16 0.00 0.00
6:53 pm 18:53 Sunny 89 31.7 47 8.3 23 23 ESE 14 22 29.93 1014 10 16 0.00 0.00
7:53 pm 19:53 Sunny 87 30.6 46 7.8 24 24 SE 15 24 29.93 1014 10 16 0.00 0.00
8:53 pm 20:53 Clear 83 28.3 48 8.9 30 30 ESE 14 22 29.96 1015 10 16 0.00 0.00
9:53 pm 21:53 Clear 80 26.7 48 8.9 33 33 SE 14 22 29.98 1015 10 16 0.00 0.00
10:53 pm 22:53 Clear 78 25.6 48 8.9 35 35 SE 16 26 29.99 1016 10 16 0.00 0.00
11:53 pm 23:53 Clear 76 24.4 49 9.4 39 39 SSE 15 24 30.01 1016 10 16 0.00 0.00

Powered by AerisWeather